Weather History for Manchester, NH

Change the Weather History Date:

Sunday, May 6, 2012

  Actual Average Record
Temperature  
Mean Temperature 56 °F -  
Max Temperature 64 °F 63 °F 89 °F (1949)
Min Temperature 48 °F 40 °F 27 °F (1961)
Degree Days  
Heating Degree Days 9    
Growing Degree Days 6 (Base 50)    
Moisture  
Dew Point 43 °F    
Average Humidity 64    
Maximum Humidity 93    
Minimum Humidity 43    
Precipitation  
Precipitation 0.00 in - - ()
Sea Level Pressure  
Sea Level Pressure 30.12 in    
Wind  
Wind Speed 4 mph (ESE)    
Max Wind Speed 10 mph    
Max Gust Speed -    
Visibility 10 miles    
Events      
Averages and records for this station are not official NWS values.
T = Trace of Precipitation, MM = Missing Value Source: NWS Daily Summary

Daily Weather History Graph

Daily Weather History Graph

Search for Another Location

Airport:

Trip Planner

Search our weather history database for the weather conditions in past years. The results will help you decide how hot, cold, wet, or windy it might be!

Date:

Astronomy

May. 06, 2012 Rise Set
Actual Time 5:32 AM EDT 7:52 PM EDT
Civil Twilight 5:00 AM EDT 8:24 PM EDT
Nautical Twilight 4:21 AM EDT 9:03 PM EDT
Astronomical Twilight 3:38 AM EDT 9:47 PM EDT
Moon 8:56 PM EDT (5/6) 5:39 AM EDT (5/6)
Length of Visible Light 15h 23m
Length of Day
14h 20m
Full, 100% of the Moon is Illuminated
May 6
Full
May 12
Last Quarter
May 20
New
May 28
First Quarter
Jun 4
Full

Hourly Weather History & Observations

Time (EDT) Temp. Dew Point Humidity Pressure Visibility Wind Dir Wind Speed Gust Speed Precip Events Conditions
12:53 AM 53.1 °F 48.0 °F 83% 30.13 in 10.0 mi NNE 3.5 mph - N/A   Overcast
1:53 AM 53.1 °F 48.0 °F 83% 30.12 in 10.0 mi Calm Calm - N/A   Overcast
2:53 AM 51.1 °F 48.0 °F 89% 30.10 in 10.0 mi ENE 3.5 mph - N/A   Partly Cloudy
3:53 AM 48.2 °F 46.4 °F 93% 30.06 in 10.0 mi Calm Calm - N/A   Partly Cloudy
4:53 AM 50.0 °F 46.9 °F 89% 30.12 in 10.0 mi Calm Calm - N/A   Overcast
5:53 AM 48.9 °F 46.9 °F 93% 30.14 in 10.0 mi Calm Calm - N/A   Mostly Cloudy
6:53 AM 51.1 °F 46.0 °F 83% 30.14 in 10.0 mi NE 5.8 mph - N/A   Mostly Cloudy
7:53 AM 53.1 °F 42.1 °F 66% 30.15 in 10.0 mi NE 10.4 mph - N/A   Scattered Clouds
8:53 AM 55.0 °F 43.0 °F 64% 30.15 in 10.0 mi NNE 6.9 mph - N/A   Mostly Cloudy
9:53 AM 55.0 °F 42.1 °F 62% 30.16 in 10.0 mi East 8.1 mph - N/A   Overcast
10:53 AM 57.0 °F 42.1 °F 57% 30.17 in 10.0 mi East 6.9 mph - N/A   Mostly Cloudy
11:53 AM 57.9 °F 39.9 °F 51% 30.16 in 10.0 mi SE 6.9 mph - N/A   Mostly Cloudy
12:53 PM 59.0 °F 39.9 °F 49% 30.14 in 10.0 mi SE 5.8 mph - N/A   Mostly Cloudy
1:53 PM 62.1 °F 41.0 °F 46% 30.11 in 10.0 mi Variable 4.6 mph - N/A   Mostly Cloudy
2:53 PM 63.0 °F 42.1 °F 46% 30.09 in 10.0 mi Variable 4.6 mph - N/A   Partly Cloudy
3:53 PM 64.0 °F 42.1 °F 45% 30.07 in 10.0 mi Variable 4.6 mph - N/A   Scattered Clouds
4:53 PM 64.0 °F 41.0 °F 43% 30.07 in 10.0 mi South 8.1 mph - N/A   Clear
5:53 PM 64.0 °F 42.1 °F 45% 30.07 in 10.0 mi South 10.4 mph - N/A   Clear
6:53 PM 61.0 °F 41.0 °F 48% 30.08 in 10.0 mi South 9.2 mph - N/A   Clear
7:53 PM 59.0 °F 41.0 °F 51% 30.10 in 10.0 mi SSE 5.8 mph - N/A   Clear
8:53 PM 55.9 °F 41.0 °F 57% 30.12 in 10.0 mi SSE 4.6 mph - N/A   Clear
9:53 PM 53.1 °F 39.0 °F 59% 30.12 in 10.0 mi South 5.8 mph - N/A   Clear
10:53 PM 51.1 °F 39.0 °F 63% 30.12 in 10.0 mi South 4.6 mph - N/A   Clear
11:53 PM 48.9 °F 37.9 °F 66% 30.13 in 10.0 mi Calm Calm - N/A   Clear